User: anonymous
Location: Unspecified
(0.0000°N, 0.0000°E)
Time: 10:16:11
(UTC+02:00)
Language:

Meteor 1-10 Rocket - Orbit

View from above orbital plane
View from above orbital plane
View from above satellite
View from above satellite

Ground track
Ground track

The orbit data is extracted from the following two-line orbital elements,

1 05732U 71120B   14109.16886627  .00000311  00000-0  18046-3 0  2526
2 05732 081.2509 158.7762 0051870 050.9546 001.8546 14.05809604176645
Epoch (UTC): 19 April 2014 04:03:10
Eccentricity: 0.0051870
inclination: 81.2509°
perigee height: 836 km
apogee height: 911 km
right ascension of ascending node: 158.7762°
argument of perigee: 50.9546°
revolutions per day: 14.05809604
mean anomaly at epoch: 1.8546°
orbit number at epoch: 17664

The dashed part of the orbit path shows where the satellite is in the earth's shadow,  

DLR